Location: Lasqueti Island Observatory
(49.4855°N, 124.2726°W)
Time: 01:05:31
(UTC-08:00)

Envisat - Visible Passes

Search period start: 01 December 2020 00:00
Search period end: 11 December 2020 00:00
Orbit: 764 x 766 km, 98.1° (Epoch: 30 November)

Date Brightness Start Highest point End Pass type
(mag) Time Alt. Az. Time Alt. Az. Time Alt. Az.
01 Dec 4.5 05:40:36 10° NNE 05:45:20 38° E 05:50:03 10° SSE visible
01 Dec 3.0 16:59:11 10° SSE 17:04:14 75° ENE 17:09:20 10° N visible
01 Dec 5.9 18:40:35 10° SW 18:43:50 17° W 18:47:08 10° NW visible
02 Dec 5.7 05:04:34 10° NE 05:08:11 19° E 05:11:46 10° SE visible
02 Dec 3.0 06:42:38 10° N 06:47:42 67° WNW 06:52:43 10° SSW visible
02 Dec 4.8 18:02:04 10° SSW 18:06:39 34° W 18:11:16 10° NNW visible
03 Dec 3.5 06:05:49 10° NNE 06:10:53 62° E 06:15:55 10° S visible
03 Dec 3.4 17:24:37 10° S 17:29:40 68° WSW 17:34:46 10° NNW visible
04 Dec 4.9 05:29:21 10° NNE 05:33:52 31° E 05:38:20 10° SSE visible
04 Dec 3.4 07:08:14 10° N 07:13:01 42° WNW 07:17:45 10° SW visible
04 Dec 3.0 16:47:53 10° SSE 16:52:52 61° ENE 16:57:54 10° N visible
04 Dec 5.6 18:28:31 10° SW 18:32:19 21° W 18:36:08 10° NW visible
05 Dec 5.9 04:53:39 10° NE 04:56:39 16° E 04:59:38 10° ESE visible
05 Dec 2.9 06:31:13 10° NNE 06:36:19 82° WNW 06:41:24 10° SSW visible
05 Dec 4.4 17:50:24 10° SSW 17:55:11 41° W 18:00:01 10° NNW visible
06 Dec 3.9 05:54:29 10° NNE 05:59:27 50° E 06:04:22 10° S visible
06 Dec 3.1 17:13:10 10° SSE 17:18:15 83° WSW 17:23:23 10° NNW visible
06 Dec 6.2 18:55:55 10° WSW 18:58:05 13° W 19:00:16 10° WNW visible
07 Dec 5.2 05:18:11 10° NE 05:22:22 25° E 05:26:32 10° SSE visible
07 Dec 3.2 06:56:45 10° N 07:01:40 51° WNW 07:06:34 10° SW visible
07 Dec 5.3 18:16:37 10° SSW 18:20:49 26° W 18:25:01 10° NW visible
08 Dec 6.2 04:43:00 10° ENE 04:45:05 12° E 04:47:11 10° ESE visible
08 Dec 3.1 06:19:48 10° NNE 06:24:56 82° ESE 06:30:01 10° SSW visible
08 Dec 4.0 17:38:48 10° S 17:43:44 51° W 17:48:43 10° NNW visible
09 Dec 4.3 05:43:12 10° NNE 05:48:00 41° E 05:52:46 10° SSE visible
09 Dec 3.7 07:22:26 10° N 07:26:55 32° WNW 07:31:24 10° SW visible
09 Dec 3.0 17:01:47 10° SSE 17:06:52 81° ENE 17:11:59 10° NNW visible
09 Dec 6.0 18:43:30 10° SW 18:46:32 16° W 18:49:35 10° NW visible
10 Dec 5.5 05:07:04 10° NE 05:10:51 21° E 05:14:37 10° SE visible
10 Dec 3.0 06:45:17 10° N 06:50:19 62° WNW 06:55:19 10° SSW visible
10 Dec 4.9 18:04:49 10° SSW 18:09:19 31° W 18:13:50 10° NNW visible
